Home > Weather > Japan > Naha > Past weeks

Flag for Japan Weather past 2 weeks in Naha, Okinawa, Japan

79 °F

Scattered showers. Partly sunny.

Feels Like: 81 °F
Forecast: 63 / 72 °F
Wind: 23 mph from Southwest

Location: Naha Airport

Current Time: Dec 2, 2015 at 4:23:40 PM

Latest Report: Dec 2, 2015 at 4:00 PM

Visibility: N/A

Pressure: 29.80 "Hg

Humidity: 74%

Dew point: 70 °F

Location of NahaLocation

Historic Weather in Naha — Graph


Naha temperature yesterday

Maximum temperature yesterday: 77 °F (at 12:00 PM)
Minimum temperature yesterday: 70 °F (at 1:30 AM)
Average temperature yesterday: 73 °F

Past Weeks' High & Low Weather Summary

High84 °F (Nov 17, 3:00 PM)100% (Nov 29, 10:30 PM)30.30 "Hg (Nov 29, 10:30 PM)
Low63 °F (Nov 26, 11:30 PM)45% (Nov 27, 6:30 AM)29.80 "Hg (Dec 2, 3:00 PM)
Average74 °F69%30.06 "Hg
* Reported Nov 17 3:00 PM — Dec 2 3:30 PM, Naha, Weather by CustomWeather, © 2015

Note: Actual official high and low records may vary slightly from our data, if they occured in-between our weather recording intervals... More about our weather records


Naha weather history for previous 24 hours

Time TempWeatherWind HumidityBarometerVisibility
3:30 PM
Wed, Dec 2
81 °FSprinkles. Partly sunny.22 mph74%29.80 "HgN/A
3:00 PM79 °FPartly sunny.21 mph79%29.80 "HgN/A
2:30 PM79 °FPartly sunny.20 mph79%29.83 "HgN/A
2:00 PM79 °FPartly sunny.20 mph84%29.83 "HgN/A
12:30 PM79 °FScattered showers. Broken clouds.20 mph84%29.86 "HgN/A
11:30 AM75 °FSprinkles. Broken clouds.16 mph89%29.89 "HgN/A
11:00 AM75 °FScattered showers. Broken clouds.16 mph89%29.92 "HgN/A
9:30 AM73 °FLots of rain. Broken clouds.15 mph89%29.95 "Hg3 mi
9:00 AM73 °FSprinkles. Broken clouds.14 mph89%29.95 "HgN/A
8:30 AM73 °FLots of rain. Broken clouds.12 mph89%29.95 "Hg1 mi
8:00 AM73 °FRain showers. Broken clouds.15 mph89%29.95 "Hg5 mi
7:00 AM73 °FSprinkles. Partly sunny.12 mph83%29.95 "Hg5 mi
6:30 AM73 °FRain showers. Partly cloudy.12 mph83%29.98 "Hg4 mi
6:00 AM75 °FPartly cloudy.12 mph78%29.95 "HgN/A
5:30 AM75 °FPartly cloudy.13 mph74%29.95 "HgN/A
5:00 AM75 °FPartly cloudy.9 mph74%29.95 "HgN/A
4:30 AM75 °FPartly cloudy.10 mph74%29.95 "HgN/A
4:00 AM75 °FPassing clouds.9 mph74%29.98 "HgN/A
3:30 AM75 °FPassing clouds.10 mph74%29.98 "HgN/A
3:00 AM75 °FPassing clouds.10 mph74%29.98 "HgN/A
2:30 AM75 °FPassing clouds.10 mph69%29.98 "HgN/A
2:00 AM75 °FPassing clouds.10 mph69%30.01 "HgN/A
1:30 AM75 °FPassing clouds.9 mph74%30.01 "HgN/A
1:00 AM75 °FSprinkles. Partly cloudy.10 mph74%30.04 "HgN/A
12:30 AM75 °FSprinkles. Partly cloudy.9 mph74%30.04 "HgN/A
12:00 AM73 °FSprinkles. Passing clouds.12 mph83%30.04 "HgN/A
11:30 PM
Tue, Dec 1
73 °FSprinkles. Passing clouds.12 mph78%30.07 "HgN/A
11:00 PM75 °FScattered showers. Passing clouds.12 mph74%30.07 "HgN/A
10:30 PM75 °FPassing clouds.13 mph74%30.07 "HgN/A
10:00 PM75 °FPassing clouds.12 mph69%30.04 "HgN/A
9:30 PM75 °FPassing clouds.9 mph69%30.07 "HgN/A
9:00 PM73 °FPassing clouds.12 mph74%30.04 "HgN/A
8:30 PM75 °FPartly cloudy.10 mph69%30.04 "HgN/A
8:00 PM73 °FLight rain. Passing clouds.8 mph74%30.07 "HgN/A
7:30 PM75 °FLight rain. Passing clouds.9 mph69%30.07 "HgN/A
7:00 PM75 °FPassing clouds.9 mph69%30.07 "HgN/A
6:30 PM75 °FPassing clouds.9 mph69%30.04 "HgN/A
6:00 PM75 °FPassing clouds.12 mph69%30.04 "HgN/A
5:00 PM75 °FPartly sunny.12 mph69%30.04 "HgN/A
4:30 PM75 °FPartly sunny.10 mph69%30.04 "HgN/A
4:00 PM75 °FPartly sunny.9 mph69%30.01 "HgN/A
Weather by CustomWeather, © 2015

See weather overviewHow to use our weather pages